Location: Newark
(48.6461°N, 4.3644°W)
Time: 21:12:10
(UTC+00:00)

Vanguard 2 Rocket - Visible Passes

Search period start: 26 January 2020 00:00
Search period end: 05 February 2020 00:00
Orbit: 554 x 3326 km, 32.9° (Epoch: 26 January)

Date Brightness Start Highest point End Pass type
(mag) Time Alt. Az. Time Alt. Az. Time Alt. Az.
26 Jan 8.8 06:36:52 10° SSW 06:40:19 18° SSE 06:44:49 10° SE visible
27 Jan 8.7 05:39:01 10° SSW 05:41:15 13° SSE 05:43:53 10° SE visible
28 Jan 8.7 06:50:55 10° SW 06:54:05 16° S 06:58:04 10° SE visible
29 Jan 8.6 05:52:43 10° SSW 05:54:58 13° S 05:57:37 10° SE visible
30 Jan 8.8 04:56:18 10° SSE 04:56:18 10° SSE 04:56:43 10° SSE visible
30 Jan 8.8 07:05:29 10° SSW 07:07:54 13° S 07:10:46 10° SSE visible
31 Jan 8.6 06:06:59 10° SSW 06:08:46 12° S 06:10:43 10° SSE visible
01 Feb 8.6 05:09:54 10° S 05:09:54 10° S 05:10:32 10° SSE visible
